This is the latest recevied weather packets stored in our database for station/object KD4EED. If no packets are shown the sender has not sent any weather packets the latest 10 day(s).
| Time | Temp. | Humidity | Pressure | Rain* | Wind** | Luminosity | Snow |
|---|---|---|---|---|---|---|---|
| 1777942186 | 18.33° C | 62% | 1012.3 hPa | - | - | 106 W/m² | - |
| 1777941883 | 18.33° C | 62% | 1012.3 hPa | - | - | 111 W/m² | - |
| 1777941579 | 18.33° C | 62% | 1012.2 hPa | - | - | 124 W/m² | - |
| 1777941277 | 18.89° C | 61% | 1012.3 hPa | - | - | 150 W/m² | - |
| 1777940973 | 18.89° C | 62% | 1012.3 hPa | - | - | 183 W/m² | - |
| 1777940669 | 18.89° C | 61% | 1012.4 hPa | - | - | 230 W/m² | - |
| 1777940368 | 18.33° C | 63% | 1012.5 hPa | - | - | 217 W/m² | - |
| 1777940065 | 18.89° C | 63% | 1012.3 hPa | - | - | 167 W/m² | - |
| 1777939762 | 18.89° C | 62% | 1012.3 hPa | - | - | 198 W/m² | - |
| 1777939460 | 18.89° C | 61% | 1012.3 hPa | - | - | 168 W/m² | - |
| 1777939156 | 19.44° C | 63% | 1012.3 hPa | - | - | 198 W/m² | - |
| 1777938854 | 19.44° C | 63% | 1011.9 hPa | - | - | 231 W/m² | - |
| 1777938549 | 18.89° C | 63% | 1012.3 hPa | - | - | 265 W/m² | - |
| 1777938248 | 18.89° C | 62% | 1012.1 hPa | - | - | 219 W/m² | - |
| 1777937944 | 19.44° C | 62% | 1012.2 hPa | - | - | 201 W/m² | - |
| 1777937639 | 19.44° C | 61% | 1012.1 hPa | - | - | 264 W/m² | - |
| 1777937336 | 19.44° C | 62% | 1012.1 hPa | - | - | 246 W/m² | - |
| 1777937034 | 19.44° C | 59% | 1012.1 hPa | - | - | 197 W/m² | - |
| 1777936730 | 20° C | 59% | 1012.1 hPa | - | - | 377 W/m² | - |
| 1777936427 | 20.56° C | 59% | 1012.2 hPa | - | - | 292 W/m² | - |
| 1777936123 | 21.11° C | 59% | 1012.3 hPa | - | - | 449 W/m² | - |
| 1777935821 | 21.11° C | 56% | 1012.2 hPa | - | - | 657 W/m² | - |
| 1777935519 | 20.56° C | 56% | 1012.5 hPa | - | - | 617 W/m² | - |
| 1777935215 | 21.11° C | 56% | 1012.5 hPa | - | - | 497 W/m² | - |
| 1777934913 | 21.11° C | 57% | 1012.4 hPa | - | - | 718 W/m² | - |
* Rain since midnight (hover to see other rain measurements)
** Current wind speed in m/s (hover to see current wind gust speed)